www.pogodaiklimat.ru

Погода и климат >> Архив погоды >> Норвегия >> Салтдал


ПОГОДА в Салтдале

  • Прогноз погоды в Салтдале
  • Монитор погоды в Салтдале

АРХИВ ПОГОДЫ в Салтдале

Время (UTC), дата Ветер
(напр.,м/с)
 
Видим.   Явления Облачность Т
(С)
Тd
(С)
f
(%)
Тe
(С)
Тes
(С)
Комфортность P
(гПа)
Po
(гПа)
Тmin
(С)
Tmax
(С)
R
(мм)
R24
(мм)
S
(см)
16 10.07 н/о н/о +16.7 +10.1 65 1014.5 1010.1
17 10.07 н/о н/о +15.9 +10.0 68 1014.8 1010.4
18 10.07 н/о н/о +16.2 +10.1 67 1014.9 1010.5 +13.4 +19.0
19 10.07 н/о н/о +15.0 +9.8 71 1014.9 1010.5
20 10.07 н/о н/о +14.1 +9.7 75 1014.7 1010.3
21 10.07 н/о н/о +13.3 +9.7 79 1014.8 1010.3
22 10.07 н/о н/о +11.9 +9.8 87 1015.0 1010.5
23 10.07 н/о н/о +10.2 +9.0 92 1014.9 1010.4
00 11.07 н/о н/о +8.9 +8.0 94 1014.8 1010.3
01 11.07 н/о н/о +9.8 +9.0 95 1014.7 1010.2
02 11.07 н/о н/о +10.5 +9.3 92 1014.5 1010.0
03 11.07 н/о н/о +11.0 +9.3 89 1014.2 1009.7
04 11.07 н/о н/о +11.8 +9.7 87 1014.0 1009.5
05 11.07 н/о н/о +12.8 +9.6 81 1013.6 1009.1
06 11.07 н/о н/о +13.2 +9.8 80 1013.3 1008.8 +8.9 +16.2
07 11.07 н/о н/о +14.4 +10.2 76 1013.0 1008.6
08 11.07 н/о н/о +15.5 +11.1 75 1012.6 1008.2
09 11.07 н/о н/о +16.4 +11.4 72 1012.2 1007.8
10 11.07 н/о н/о +17.0 +11.5 70 1012.0 1007.6
11 11.07 н/о н/о +17.5 +11.8 69 1011.5 1007.1
12 11.07 н/о н/о +18.1 +11.9 67 1011.3 1006.9
13 11.07 н/о н/о +19.2 +12.0 63 1011.2 1006.8
14 11.07 н/о н/о +18.1 +11.9 67 1011.1 1006.7
15 11.07 н/о н/о +17.8 +11.4 66 1011.2 1006.8
16 11.07 н/о н/о +18.0 +11.6 66 1011.1 1006.7
17 11.07 н/о н/о +16.7 +11.2 70 1011.1 1006.7
18 11.07 н/о н/о +15.5 +10.9 74 1011.3 1006.9 +13.2 +19.2
19 11.07 н/о н/о +13.9 +10.5 80 1011.6 1007.2
20 11.07 н/о н/о +13.3 +10.3 82 1011.8 1007.3
21 11.07 н/о н/о +13.2 +10.6 84 1011.9 1007.5
22 11.07 н/о н/о +12.8 +10.4 85 1012.1 1007.6
23 11.07 н/о н/о +12.5 +10.2 86 1012.2 1007.7
00 12.07 н/о н/о +12.4 +10.3 87 1012.2 1007.7
01 12.07 н/о н/о +12.3 +10.4 88 1012.3 1007.8
02 12.07 н/о н/о +12.0 +10.4 90 1012.2 1007.7
03 12.07 н/о н/о +11.9 +10.6 92 1012.1 1007.6
04 12.07 н/о н/о +12.2 +10.6 90 1011.8 1007.3
05 12.07 н/о н/о +12.7 +10.8 88 1011.9 1007.5
06 12.07 н/о н/о +13.2 +10.9 86 1011.9 1007.5 +11.9 +15.5
07 12.07 н/о н/о +14.3 +10.9 80 1011.9 1007.5
08 12.07 н/о н/о +16.0 +11.2 73 1011.6 1007.2
09 12.07 н/о н/о +16.6 +11.1 70 1011.2 1006.8
10 12.07 н/о н/о +18.1 +11.7 66 1010.8 1006.4
11 12.07 н/о н/о +19.2 +12.2 64 1010.4 1006.1
12 12.07 н/о н/о +19.7 +12.2 62 1010.2 1005.9
13 12.07 н/о н/о +19.3 +12.6 65 1010.3 1006.0
14 12.07 н/о н/о +19.8 +12.8 64 1010.6 1006.3
15 12.07 н/о н/о +19.1 +12.1 64 1010.6 1006.3
16 12.07 н/о н/о +18.6 +11.7 64 1011.0 1006.6
17 12.07 н/о н/о +17.7 +11.5 67 1011.1 1006.7
18 12.07 н/о н/о +16.5 +10.8 69 1011.4 1007.0 +13.2 +20.0
19 12.07 н/о н/о +15.3 +10.5 73 1011.9 1007.5
20 12.07 н/о н/о +14.5 +10.3 76 1012.4 1008.0
21 12.07 н/о н/о +14.3 +10.5 78 1012.7 1008.3
22 12.07 н/о н/о +14.0 +10.4 79 1013.1 1008.7
23 12.07 н/о н/о +13.4 +10.6 83 1013.3 1008.9
00 13.07 н/о н/о +13.1 +10.5 84 1013.5 1009.0
01 13.07 н/о н/о +13.1 +10.6 85 1013.6 1009.1
02 13.07 н/о н/о +12.9 +10.8 87 1013.8 1009.3
03 13.07 н/о н/о +12.9 +10.8 87 1013.8 1009.3
04 13.07 н/о н/о +13.0 +10.9 87 1013.9 1009.4
05 13.07 н/о н/о +13.3 +11.2 87 1013.9 1009.4
06 13.07 н/о н/о +13.6 +10.8 83 1013.8 1009.4 +12.9 +16.5
07 13.07 н/о н/о +14.4 +11.0 80 1014.0 1009.6
08 13.07 н/о н/о +15.3 +10.9 75 1014.1 1009.7
09 13.07 н/о н/о +16.1 +10.9 71 1014.1 1009.7
10 13.07 н/о н/о +16.6 +11.3 71 1014.0 1009.6
11 13.07 н/о н/о +16.6 +11.8 73 1013.9 1009.5
12 13.07 н/о н/о +15.6 +11.4 76 1014.1 1009.7
13 13.07 н/о н/о +15.3 +11.1 76 1014.3 1009.9
14 13.07 н/о н/о +15.1 +10.7 75 1014.6 1010.2
15 13.07 н/о н/о +15.0 +10.8 76 1014.9 1010.5
16 13.07 н/о н/о +14.6 +11.0 79 1015.1 1010.7
17 13.07 н/о н/о +14.6 +10.4 76 1015.2 1010.8
18 13.07 н/о н/о +14.0 +10.8 81 1015.2 1010.8 +13.5 +17.0
19 13.07 н/о н/о +13.2 +10.6 84 1015.3 1010.8
20 13.07 н/о н/о +12.7 +10.8 88 1015.4 1010.9
21 13.07 н/о н/о +12.4 +10.6 89 1015.4 1010.9
22 13.07 н/о н/о +12.0 +10.7 92 1015.4 1010.9
23 13.07 н/о н/о +11.8 +10.9 94 1015.3 1010.8
00 14.07 н/о н/о +11.5 +10.7 95 1015.5 1011.0
01 14.07 н/о н/о +11.4 +10.8 96 1015.5 1011.0
02 14.07 н/о н/о +11.4 +10.6 95 1015.4 1010.9
03 14.07 н/о н/о +11.5 +10.7 95 1015.3 1010.8
04 14.07 н/о н/о +11.7 +10.5 92 1015.2 1010.7
05 14.07 н/о н/о +12.3 +10.0 86 1015.1 1010.6
06 14.07 н/о н/о +12.7 +10.1 84 1015.0 1010.5 +11.4 +14.0
07 14.07 н/о н/о +12.9 +9.9 82 1015.0 1010.5
08 14.07 н/о н/о +13.5 +8.8 73 1015.0 1010.5
09 14.07 н/о н/о +13.5 +9.4 76 1014.9 1010.4
10 14.07 н/о н/о +13.3 +8.8 74 1014.9 1010.4
11 14.07 н/о н/о +13.6 +8.9 73 1014.7 1010.2
12 14.07 н/о н/о +13.8 +8.4 70 1014.5 1010.1
13 14.07 н/о н/о +14.1 +8.7 70 1014.6 1010.2
14 14.07 н/о н/о +14.2 +8.4 68 1014.6 1010.2
15 14.07 н/о н/о +13.3 +8.8 74 1014.7 1010.2
16 14.07 н/о н/о +12.7 +9.2 79 1014.7 1010.2
17 14.07 н/о н/о +12.5 +9.3 81 1014.4 1009.9
18 14.07 н/о н/о +12.0 +9.2 83 1014.2 1009.7 +12.0 +14.3
19 14.07 н/о н/о +11.5 +9.4 87 1014.1 1009.6
20 14.07 н/о н/о +11.0 +8.9 87 1014.2 1009.7
21 14.07 н/о н/о +10.3 +8.9 91 1014.2 1009.7
22 14.07 н/о н/о +10.1 +8.7 91 1014.1 1009.6
23 14.07 н/о н/о +9.8 +8.9 94 1014.0 1009.5
00 15.07 н/о н/о +9.5 +8.7 95 1013.8 1009.3
01 15.07 н/о н/о +9.2 +8.4 95 1013.7 1009.2
02 15.07 н/о н/о +9.1 +8.5 96 1013.7 1009.2
03 15.07 н/о н/о +9.0 +8.2 95 1013.8 1009.3
04 15.07 н/о н/о +9.0 +8.1 94 1013.7 1009.2
05 15.07 н/о н/о +9.2 +7.8 91 1013.7 1009.2
06 15.07 н/о н/о +9.6 +7.9 89 1013.5 1009.0 +8.9 +12.0
07 15.07 н/о н/о +9.7 +7.5 86 1013.4 1008.9
08 15.07 н/о н/о +10.4 +7.6 83 1013.4 1008.9
09 15.07 н/о н/о +10.9 +7.6 80 1013.3 1008.8
10 15.07 н/о н/о +11.0 +8.2 83 1013.2 1008.7
11 15.07 н/о н/о +11.5 +8.0 79 1013.1 1008.6
12 15.07 н/о н/о +12.1 +8.2 77 1013.2 1008.7
13 15.07 н/о н/о +12.3 +8.4 77 1013.3 1008.8
14 15.07 н/о н/о +12.0 +9.4 84 1013.5 1009.0
15 15.07 н/о н/о +11.8 +9.5 86 1013.4 1008.9 0.1
16 15.07 н/о н/о +11.8 +9.4 85 1013.5 1009.0 0.1
17 15.07 н/о н/о +11.7 +9.1 84 1013.6 1009.1
18 15.07 н/о н/о +11.9 +9.1 83 1013.7 1009.2 +9.4 +12.4
19 15.07 н/о н/о +11.7 +8.9 83 1013.9 1009.4
20 15.07 н/о н/о +11.2 +10.0 92 1014.2 1009.7
21 15.07 н/о н/о +11.0 +10.1 94 1014.5 1010.0
22 15.07 н/о н/о +10.7 +9.8 94 1014.7 1010.2
23 15.07 н/о н/о +10.4 +9.6 95 1014.9 1010.4
00 16.07 н/о н/о +10.3 +9.7 96 1015.0 1010.5
01 16.07 н/о н/о +10.1 +9.5 96 1015.2 1010.7
02 16.07 н/о н/о +10.1 +9.5 96 1015.3 1010.8
03 16.07 н/о н/о +10.2 +9.8 97 1015.4 1010.9
04 16.07 н/о н/о +10.3 +9.9 97 1015.6 1011.1
05 16.07 н/о н/о +10.8 +10.2 96 1015.6 1011.2
06 16.07 н/о н/о +11.6 +10.0 90 1015.7 1011.2 +10.0 +11.9
07 16.07 н/о н/о +13.3 +9.6 78 1015.7 1011.2
08 16.07 н/о н/о +13.8 +7.4 65 1015.3 1010.9
09 16.07 н/о н/о +14.0 +7.8 66 1015.4 1011.0
10 16.07 н/о н/о +13.7 +7.7 67 1015.6 1011.1
11 16.07 н/о н/о +14.2 +7.3 63 1015.3 1010.9
12 16.07 н/о н/о +15.6 +6.9 56 1015.1 1010.7
13 16.07 н/о н/о +14.1 +6.5 60 1015.2 1010.8
14 16.07 н/о н/о +14.6 +6.7 59 1015.3 1010.9
15 16.07 н/о н/о +13.6 +6.5 62 1015.6 1011.1
16 16.07 н/о н/о +12.7 +8.6 76 1015.9 1011.4
17 16.07 н/о н/о +12.6 +9.6 82 1015.8 1011.4
18 16.07 н/о н/о +13.0 +7.5 69 1016.0 1011.5 +11.6 +15.7
19 16.07 н/о н/о +12.6 +7.5 71 1015.8 1011.3
20 16.07 н/о н/о +11.7 +7.2 74 1016.0 1011.5
21 16.07 н/о н/о +10.4 +8.5 88 1016.0 1011.5
22 16.07 н/о н/о +9.5 +8.1 91 1016.2 1011.7
23 16.07 н/о н/о +9.1 +8.2 94 1016.1 1011.7
00 17.07 н/о н/о +8.6 +7.9 95 1016.1 1011.7
01 17.07 н/о н/о +8.1 +7.5 96 1016.0 1011.5
02 17.07 н/о н/о +8.1 +7.7 97 1015.8 1011.2
03 17.07 н/о н/о +8.3 +7.7 96 1015.6 1011.1
04 17.07 н/о н/о +9.2 +8.0 92 1015.4 1010.9
05 17.07 н/о н/о +10.3 +7.9 85 1015.0 1010.5
06 17.07 н/о н/о +11.9 +8.4 79 1014.6 1010.2 +7.9 +13.0
07 17.07 н/о н/о +14.3 +7.1 62 1014.3 1009.8
08 17.07 н/о н/о +13.5 +7.3 66 1013.9 1009.5
09 17.07 н/о н/о +14.7 +5.8 55 1013.5 1009.2
10 17.07 н/о н/о +16.3 +6.2 51 1013.3 1008.9
11 17.07 н/о н/о +15.4 +5.9 53 1013.2 1008.8
12 17.07 н/о н/о +16.8 +6.1 49 1012.8 1008.5
13 17.07 н/о н/о +17.8 +5.7 45 1012.4 1008.0
14 17.07 н/о н/о +17.5 +5.8 46 1012.2 1007.8
15 17.07 н/о н/о +17.6 +5.9 46 1012.1 1007.7

 

Местоположение метеостанции Салтдал (Норвегия): широта 66.94 долгота 15.32 высота над уровнем моря 39 м.

В архиве по умолчанию представлена погода в Салтдале за последнюю неделю. Архивные данные за месяц целиком и за предыдущие месяцы, начиная с января 2011 года, Вы можете получить, выбрав интересующий диапазон дат из раскрывающегося списка и нажав кнопку "Ввод!".


*Определитесь, кто Вы:
робот инопланетянин человек

Внимание! Время в таблицах - всемирное. Для получения местного времени необходимо прибавить поправку, которая равна 1 ч.

Смотрите также архив погоды в соседних городах и на ближайших метеорологических станциях:

Погода в Сетсе (Норвегия) (27 км)
Погода в Миеркенисе (Швеция) (45 км)
Погода в Хяртасене (Норвегия) (52 км)
Погода в Бодо (Норвегия) (55 км)
Погода в Сторфоршее (Норвегия) (69 км)
Погода в Ропаруддене (Швеция) (71 км)
Погода в Рейпе (Норвегия) (73 км)
Погода в Аэропорту Mo i Rana (Норвегия) (79 км)
Погода в Хеллигвере (Норвегия) (80 км)
Погода в Скамдале (Норвегия) (100 км)

Пояснения к столбцам:

Ветер - указаны скорость ветра в м/с - средняя за 10 мин, порывы в срок и между сроками (в фигурных скобках) и направление, откуда дует ветер: С - северный, СВ - северо-восточный, В - восточный, ЮВ - юго-восточный, Ю - южный, ЮЗ - юго-западный, З - западный, СЗ - северо-западный.
Видимость - горизонтальная дальность видимости в метрах или километрах. При видимости от 1 до 10 км при отсутствии осадков обычно наблюдается дымка, при ухудшении видимости до 1 км и менее - туман. В сухую погоду видимость может ухудшаться дымом, пылью или мглою.
Явления - указаны атмосферные явления, наблюдавшиеся в срок или в последний час перед сроком; фигурными скобками обозначены явления, наблюдавшиеся между сроками (за 1-3 часа до срока); квадратными скобками обозначены град или гололедные отложения с указанием их диаметра в мм.
Облачность - указаны через наклонную черту общая и нижняя облачность в баллах и высота нижней границы облаков в метрах; квадратными скобками обозначены формы облаков: Ci - перистые, Cs - перисто-слоистые, Cc - перисто-кучевые, Ac - высококучевые, As - высокослоистые, Sc - слоисто-кучевые, Ns - слоисто-дождевые, Cu - кучевые, Cb - кучево-дождевые. Подробнее классификацию облаков см. в Атласе облаков (PDF).
T - Температура воздуха - температура, измеренная на высоте 2 м над землей.
Td - Температура точки росы - температура, при понижении до которой содержащийся в воздухе водяной пар достигнет насыщения.
f - Относительная влажность воздуха - влажноcть воздуха, измеренная на высоте 2 м над землей.
Te - Эффективная температура - температура, которую ощущает одетый по сезону человек в тени. Характеристика душности погоды. При расчете учитывается влияние влажности воздуха и скорости ветра на теплоощущения человека.
Tes - Эффективная температура на солнце - температура, которую ощущает человек, с поправкой на солнечный нагрев. Характеристика знойности погоды. Зависит от высоты солнца над горизонтом, облачности и скорости ветра. Ночью, в пасмурную погоду, а также при ветре 12 м/с и более поправка равна нулю.
P - Атмосферное давление - приведенное к уровню моря атмосферное давление.
Po - Атмосферное давление - измеренное на уровне метеостанции атмосферное давление.
Tmin - Минимальная температура - минимум температуры воздуха на высоте 2 м над землей.
Tmax - Максимальная температура - максимум температуры воздуха на высоте 2 м над землей.
R - Количество осадков - Количество выпавших осадков за период времени, мм. При наведении курсора мыши на число - период времени, за который выпало указанное количество осадков.
R24 - Количество осадков - Количество выпавших осадков за 24 часа, мм.
S - Снежный покров - Высота снежного покрова, см. При наведении курсора мыши на число - состояние снежного покрова и степень покрытия местности в баллах.